Regional Weather Roundup
Issued by NWS

Home | Current Version | Previous Version | Graphics & Text | Print | Product List | Glossary On
Versions: 1 2 3 4 5 6 7 8 9 10 11 12 13 14 15 16 17 18 19 20 21 22 23 24 25 26 27 28 29 30 31 32 33 34 35 36 37 38 39 40 41 42 43 44 45 46 47 48 49 50
000
ASUS43 KLOT 220900
RWRIL

ILLINOIS REGIONAL WEATHER ROUNDUP
NATIONAL WEATHER SERVICE CHICAGO/ROMEOVILLE IL
400 AM CDT MON SEP 22 2014

NOTE: "FAIR" INDICATES FEW OR NO CLOUDS BELOW 12,000 FEET WITH NO
SIGNIFICANT WEATHER AND/OR OBSTRUCTIONS TO VISIBILITY.

* THESE STATIONS ARE NOT UNDER NWS QUALITY CONTROL. THEY ALSO MAY NOT
  REPORT WEATHER SUCH AS PRECIPITATION OR FOG.

ILZ001-002-007-009-015-016-024-221000-
NORTHWEST ILLINOIS

CITY           SKY/WX    TMP DP  RH WIND       PRES   REMARKS
MOLINE         CLEAR     44  42  93 CALM      30.23R
STERLING*      CLEAR     46  41  81 N6        30.22R
$$

ILZ003-004-008-010-011-017-018-221000-
NORTH CENTRAL ILLINOIS

CITY           SKY/WX    TMP DP  RH WIND       PRES   REMARKS
ROCKFORD       CLEAR     45  41  86 CALM      30.23R
FREEPORT*      CLEAR     42  41  95 CALM      30.24R
ROCHELLE*      CLEAR     41  40  95 CALM      30.21S
$$

ILZ005-006-012>014-019>023-221000-
NORTHEAST ILLINOIS

CITY           SKY/WX    TMP DP  RH WIND       PRES   REMARKS
CHICAGO-OHARE  PTCLDY    48  41  76 NW7       30.18S
CHICAGO-MIDWAY PTCLDY    50  45  83 NW7       30.17S
AURORA         CLEAR     42  39  89 CALM      30.20S
LANSING*       PTCLDY    53  44  69 N6        30.18R
WAUKEGAN       CLEAR     43  40  89 NW5       30.18S
DUPAGE AIRPORT CLEAR     43  40  89 N5        30.18S
WHEELING       CLEAR     46  41  82 NW5       30.19S
NORTHERLY ISL    N/A     54  44  69 N13         N/A
$$

LMZ740>746-221000-
SOUTHERN LAKE MICHIGAN

STATION/POSITION SKY/WX   TEMP    WIND        PRES    VSBY  WAVE
                          AIR SEA DIR/SP/G                  HT/PER
                          (F)     (DEG/KT/KT) (MB)    (MI)  (FT/S)
SOUTHERN BUOY              53 61  340/ 17/ 21 1021.3R         8/ 8
WAUKEGAN HARBOR            47     330/  9/ 11   N/A
HARRISON CRIB              55      10/ 17/ 20   N/A
BURNHAM HARBOR             54      20/ 10/ 15   N/A
CALUMET HARBOR             55     350/ 10/ 14 1020.4R
MICHIGAN CITY              54     340/ 20/ 25   N/A
MICHIGAN CITY 6N           55 64   10/ 17/ 23   N/A           8/ 6
ST. JOSEPH                 55 65   10/ 17/ 23   N/A           7/ 6
$$

ILZ025>027-034>036-040-047-049-050-058-095>099-221000-
WEST-CENTRAL ILLINOIS

CITY           SKY/WX    TMP DP  RH WIND       PRES   REMARKS
QUINCY         CLEAR     49  47  93 N6        30.22R
GALESBURG*     CLEAR     42  42  97 CALM      30.22S
MACOMB*        CLEAR     48  47  95 N5        30.24R
$$

ILZ028>032-037-038-041>044-048-051>054-059>061-221000-
CENTRAL ILLINOIS

CITY           SKY/WX    TMP DP  RH WIND       PRES   REMARKS
DECATUR        CLEAR     50  48  93 N3        30.20R
PEORIA         CLEAR     50  46  86 NW3       30.22R
SPRINGFIELD    CLEAR     52  49  89 N7        30.20R
TAYLORVILLE    NOT AVBL
$$

ILZ033-039-045-046-055>057-062-063-221000-
EAST-CENTRAL ILLINOIS

CITY           SKY/WX    TMP DP  RH WIND       PRES   REMARKS
CHAMPAIGN      CLEAR     46  44  93 N5        30.18S
MATTOON        CLEAR     48  46  93 NW5       30.17R
$$

ILZ079-100>102-221000-
SOUTHWEST ILLINOIS

CITY           SKY/WX    TMP DP  RH WIND       PRES   REMARKS
BELLEVILLE     CLEAR     55  51  87 W7        30.18R
CAHOKIA*       CLEAR     53  50  89 CALM      30.19R
SPARTA*        CLEAR     52  50  93 CALM      30.19S
$$

ILZ064>066-069>071-074>076-080>082-084>086-088>090-092>094-221000-
SOUTH-CENTRAL ILLINOIS

CITY           SKY/WX    TMP DP  RH WIND       PRES   REMARKS
CARBONDALE     CLEAR     50  48  93 CALM      30.17R
MARION         CLEAR     55  52  88 CALM      30.17R
MT. VERNON     CLEAR     54  46  76 N5        30.17R
$$

ILZ067-068-072-073-078-083-087-091-221000-
SOUTHEAST ILLINOIS

CITY           SKY/WX    TMP DP  RH WIND       PRES   REMARKS
LAWRENCEVILLE  CLEAR     53  51  93 N7        30.15R
ROBINSON*      CLEAR     53  52  97 N6        30.16S
$$

ABBREVIATIONS USED IN REMARKS
   TC - TEMPERATURE IN CELSIUS
  WCI - WIND CHILL INDEX
   HX - HEAT INDEX
  VSB - VISIBILITY
$$




USA.gov is the U.S. government's official web portal to all federal, state and local government web resources and services.